[[{"header":{"parameterUnit":"m.s-1","parameterCategory":1,"la1":30.2991,"la2":30.254,"lo1":-89.0895,"lo2":-89.0444,"dy":0.0017,"dx":0.0017,"nx":28,"ny":28,"refTime":"2025-07-26T21:00:00:Z","depth":0,"parameterNumber":2,"parameterNumberName":"U-component_of_WINDS"},"data":[0,0,0,0,0,0,0,0,0,0,0,0,0,0,0,0,0,0,0,0,0,0,0,0,0,0,0,0,0,0,0,0,0,0,0,0,0,0,0,0,0,0,0,0,0,0,0,0,0,0,0,0,0,0,0,0,0,0,-0.4143,-0.4143,0,-0.4122,-0.4122,-0.4121,-0.4105,-0.4105,-0.4104,-0.4104,-0.4083,-0.4083,-0.4083,0,0,0,0,0,0,0,0,0,0,0,0,0,-0.4172,-0.4172,-0.4144,-0.4143,-0.4143,-0.4122,-0.4122,-0.4121,-0.4105,-0.4105,-0.4104,-0.4104,-0.4084,-0.4083,-0.4083,0,0,0,0,0,0,0,0,0,0,0,0,0,-0.4156,-0.4172,-0.4144,-0.4132,-0.4131,-0.4122,-0.4122,-0.4121,-0.4105,-0.4105,-0.4104,-0.4104,-0.4084,-0.4083,-0.4083,-0.4084,0,0,-0.4081,-0.408,0,0,0,0,0,0,0,0,-0.4157,-0.4155,-0.4134,-0.4133,-0.4131,-0.4116,-0.4124,-0.4109,-0.4105,-0.4115,-0.4104,-0.4104,-0.4094,-0.4093,-0.4089,-0.4083,-0.4082,-0.4081,-0.408,-0.408,-0.408,0,0,0,0,0,0,0,-0.4158,-0.4156,-0.4135,-0.4134,-0.4132,-0.4129,-0.4126,-0.4121,-0.4106,-0.4114,-0.4113,-0.411,-0.4094,-0.409,-0.4089,-0.4082,-0.4081,-0.408,-0.408,-0.408,-0.4076,-0.4076,0,0,0,0,0,0,-0.4161,-0.4157,-0.4136,-0.4134,-0.4144,-0.4128,-0.4126,-0.4121,-0.4106,-0.4104,-0.411,-0.4109,-0.4091,-0.409,-0.4088,-0.4089,-0.408,-0.408,-0.4079,-0.4075,-0.4076,-0.4076,0,0,0,0,0,0,-0.4162,-0.4159,-0.4137,-0.4145,-0.4142,-0.4128,-0.4123,-0.4121,-0.4117,-0.4104,-0.4101,-0.4109,-0.4091,-0.4089,-0.4085,-0.4088,-0.4079,-0.4079,-0.4075,-0.4076,-0.4076,-0.4091,0,0,0,0,0,0,-0.4163,-0.416,-0.4159,-0.4145,-0.4142,-0.4133,-0.4123,-0.412,-0.4116,-0.4114,-0.4102,-0.41,-0.4091,-0.4086,-0.4084,-0.4087,-0.4078,-0.4075,-0.4075,-0.4076,-0.409,-0.4092,-0.4093,0,0,0,0,0,-0.4164,-0.4165,-0.4159,-0.4157,-0.4141,-0.4133,-0.4131,-0.4121,-0.4116,-0.4116,-0.4108,-0.41,-0.4088,-0.4086,-0.4084,-0.4086,-0.4075,-0.4075,-0.4076,-0.4089,-0.4091,-0.4093,0,0,0,0,0,0,-0.4179,-0.4162,-0.4157,-0.4153,-0.4145,-0.4131,-0.413,-0.4123,-0.4116,-0.4115,-0.4103,-0.41,-0.4098,-0.4092,-0.4089,-0.4087,-0.408,-0.4081,-0.4091,-0.4093,-0.4095,-0.4096,-0.4078,0,0,0,0,0,-0.4182,-0.4177,-0.4163,-0.4161,-0.4157,-0.4144,-0.4141,-0.4133,-0.4124,-0.4121,-0.4112,-0.4104,-0.4099,-0.4096,-0.409,-0.4089,-0.4086,-0.409,-0.4091,-0.4093,-0.4093,-0.4093,-0.4095,-0.4078,-0.4078,-0.4078,0,0,-0.4189,-0.4179,-0.4176,-0.4164,-0.4157,-0.4152,-0.4142,-0.4137,-0.4134,-0.412,-0.4116,-0.411,-0.41,-0.4098,-0.4097,-0.4093,-0.4097,-0.4093,-0.4095,-0.4094,-0.4094,-0.4095,-0.4097,-0.4078,-0.4078,-0.4078,0,0,-0.4198,-0.4189,-0.4187,-0.418,-0.4169,-0.4161,-0.4161,-0.4148,-0.4143,-0.4138,-0.4129,-0.4125,-0.4115,-0.4109,-0.4105,-0.4113,-0.4106,-0.4111,-0.4119,-0.4119,-0.4121,-0.4122,-0.4125,-0.4127,-0.4112,-0.4112,-0.4112,0,-0.4207,-0.4199,-0.4187,-0.4183,-0.4178,-0.4166,-0.4164,-0.4158,-0.4146,-0.4144,-0.4139,-0.4128,-0.4121,-0.4117,-0.4119,-0.4116,-0.4116,-0.4113,-0.4121,-0.4122,-0.4123,-0.4126,-0.4128,-0.4112,-0.4112,-0.4112,-0.4112,0,-0.4211,-0.4206,-0.4206,-0.4194,-0.419,-0.4187,-0.4175,-0.4172,-0.4165,-0.4158,-0.4154,-0.4145,-0.4137,-0.4136,-0.4129,-0.4132,-0.413,-0.4124,-0.4117,-0.4126,-0.4129,-0.413,-0.4114,-0.4113,-0.4113,-0.4113,0,0,-0.4229,-0.4212,-0.4212,-0.4207,-0.4194,-0.419,-0.4188,-0.418,-0.4178,-0.417,-0.4168,-0.4161,-0.4155,-0.415,-0.4143,-0.4143,-0.415,-0.4137,-0.4136,-0.414,-0.4154,-0.4159,-0.416,-0.4146,-0.4146,-0.4146,-0.4155,0,-0.4237,-0.423,-0.422,-0.4217,-0.4213,-0.4201,-0.4199,-0.4191,-0.4184,-0.418,-0.4173,-0.4168,-0.4161,-0.4158,-0.4157,-0.415,-0.4153,-0.4149,-0.4144,-0.4144,-0.4147,-0.4161,-0.4166,-0.4175,-0.4156,-0.4156,-0.4156,0,-0.4244,-0.4237,-0.4234,-0.4223,-0.422,-0.4218,-0.4211,-0.4207,-0.4199,-0.4194,-0.4189,-0.418,-0.4178,-0.4171,-0.4167,-0.4165,-0.4162,-0.4158,-0.4158,-0.4158,-0.4151,-0.4162,-0.4178,-0.4179,-0.4157,-0.4157,-0.4157,0,-0.4259,-0.4248,-0.4245,-0.4241,-0.4228,-0.4227,-0.4221,-0.4212,-0.4209,-0.4203,-0.42,-0.4194,-0.4191,-0.4186,-0.4177,-0.4173,-0.4175,-0.4167,-0.4171,-0.4171,-0.4172,-0.4172,-0.4188,-0.417,-0.417,-0.417,-0.417,0,-0.4268,-0.4267,-0.4252,-0.425,-0.4248,-0.4237,-0.4236,-0.4229,-0.4222,-0.4219,-0.4209,-0.4206,-0.4194,-0.4191,-0.4183,-0.4182,-0.418,-0.4177,-0.4175,-0.4178,-0.4179,-0.4176,-0.4176,-0.417,-0.417,-0.417,-0.417,0,-0.4284,-0.4273,-0.4269,-0.4257,-0.4254,-0.4254,-0.4243,-0.4241,-0.4234,-0.4231,-0.4229,-0.4218,-0.4214,-0.4204,-0.4197,-0.4192,-0.4192,-0.4189,-0.4195,-0.4194,-0.4199,-0.4199,-0.4215,-0.4216,-0.4196,-0.4197,-0.4197,0,-0.4291,-0.4289,-0.4277,-0.4274,-0.4269,-0.4265,-0.4261,-0.425,-0.4247,-0.4238,-0.4237,-0.4232,-0.4227,-0.422,-0.4212,-0.4207,-0.4203,-0.4209,-0.4202,-0.4206,-0.4204,-0.4204,-0.4205,-0.4211,-0.4211,-0.4211,-0.4211,0,-0.4305,-0.43,-0.4294,-0.4288,-0.4284,-0.4278,-0.4271,-0.427,-0.4258,-0.4255,-0.425,-0.4246,-0.4239,-0.4234,-0.4227,-0.4222,-0.4215,-0.4213,-0.4214,-0.4218,-0.4222,-0.422,-0.42,-0.4213,-0.4213,-0.4213,-0.4213,-0.4213,-0.4316,-0.4315,-0.4306,-0.4301,-0.4295,-0.429,-0.4288,-0.428,-0.4276,-0.4269,-0.4263,-0.4259,-0.4252,-0.4242,-0.4237,-0.4235,-0.4231,-0.4232,-0.4232,-0.4233,-0.4234,-0.4222,-0.4233,-0.4233,-0.4233,-0.4233,-0.4233,0,-0.433,-0.4324,-0.4319,-0.4311,-0.4307,-0.43,-0.4293,-0.4291,-0.4287,-0.4281,-0.4276,-0.4271,-0.4267,-0.4258,-0.4253,-0.4252,-0.4249,-0.4251,-0.4251,-0.4251,-0.4238,-0.4238,-0.4254,-0.4254,-0.4254,-0.4254,-0.4254,-0.4254,-0.4337,-0.4335,-0.4329,-0.4324,-0.4318,-0.4314,-0.431,-0.4306,-0.43,-0.4295,-0.4291,-0.4285,-0.4278,-0.4273,-0.4268,-0.4266,-0.4265,-0.4269,-0.4265,-0.4253,-0.4251,-0.4249,-0.425,-0.4268,-0.4268,-0.4278,-0.4278,-0.4279]},{"header":{"parameterUnit":"m.s-1","parameterCategory":1,"la1":30.2991,"la2":30.254,"lo1":-89.0895,"lo2":-89.0444,"dy":0.0017,"dx":0.0017,"nx":28,"ny":28,"refTime":"2025-07-26T21:00:00:Z","depth":0,"parameterNumber":3,"parameterNumberName":"V-component_of_WINDS"},"data":[0,0,0,0,0,0,0,0,0,0,0,0,0,0,0,0,0,0,0,0,0,0,0,0,0,0,0,0,0,0,0,0,0,0,0,0,0,0,0,0,0,0,0,0,0,0,0,0,0,0,0,0,0,0,0,0,0,0,3.6159,3.6159,0,3.6141,3.6141,3.614,3.6081,3.608,3.6078,3.6077,3.6058,3.6059,3.6059,0,0,0,0,0,0,0,0,0,0,0,0,0,3.6141,3.6141,3.6159,3.6159,3.6158,3.6141,3.6141,3.614,3.6081,3.6079,3.6078,3.6076,3.6058,3.6059,3.606,0,0,0,0,0,0,0,0,0,0,0,0,0,3.6138,3.6142,3.6159,3.6127,3.6124,3.6141,3.6141,3.614,3.6081,3.6079,3.6077,3.6076,3.6058,3.6059,3.606,3.6106,0,0,3.6063,3.6064,0,0,0,0,0,0,0,0,3.6138,3.6139,3.6132,3.6129,3.6126,3.6111,3.6127,3.6129,3.6082,3.6097,3.6077,3.6075,3.6077,3.6077,3.6078,3.6106,3.6105,3.6063,3.6064,3.6064,3.6065,0,0,0,0,0,0,0,3.6139,3.6139,3.6152,3.6132,3.6128,3.6113,3.611,3.6127,3.6099,3.6096,3.6092,3.609,3.6075,3.6077,3.6077,3.6104,3.6063,3.6064,3.6065,3.6065,3.6167,3.6169,0,0,0,0,0,0,3.6144,3.614,3.6152,3.6151,3.6127,3.6115,3.6112,3.6118,3.6098,3.6094,3.6092,3.6088,3.6076,3.6075,3.6076,3.6127,3.6064,3.6065,3.6066,3.6165,3.6167,3.617,0,0,0,0,0,0,3.6143,3.6145,3.6153,3.6144,3.6144,3.6117,3.6124,3.6118,3.612,3.6095,3.609,3.6099,3.6074,3.6074,3.6099,3.6126,3.6066,3.6067,3.6163,3.6166,3.6169,3.6231,0,0,0,0,0,0,3.6143,3.6146,3.6163,3.6145,3.6145,3.6177,3.6126,3.612,3.6122,3.6116,3.61,3.6096,3.6073,3.6097,3.61,3.6126,3.6068,3.616,3.6164,3.6168,3.6227,3.6236,3.6244,0,0,0,0,0,3.6143,3.6182,3.6165,3.6166,3.6167,3.6179,3.6178,3.6151,3.6124,3.6142,3.6126,3.6096,3.6123,3.61,3.6103,3.613,3.6158,3.6163,3.6167,3.6223,3.6234,3.6244,0,0,0,0,0,0,3.6205,3.6179,3.616,3.6195,3.6189,3.6168,3.6189,3.6164,3.6166,3.616,3.6126,3.6123,3.6152,3.6144,3.6119,3.6172,3.6135,3.6141,3.6177,3.6188,3.6196,3.6197,3.6069,0,0,0,0,0,3.6223,3.6234,3.6212,3.6245,3.6243,3.6217,3.6221,3.62,3.6193,3.6191,3.6176,3.6171,3.6177,3.6182,3.6187,3.6226,3.622,3.6245,3.6254,3.6261,3.6266,3.6283,3.6293,3.6185,3.6185,3.6185,0,0,3.6259,3.6247,3.6257,3.6257,3.625,3.6262,3.6215,3.6231,3.6239,3.6193,3.6214,3.6204,3.6195,3.6226,3.6239,3.622,3.6295,3.6267,3.6273,3.6273,3.6289,3.6299,3.6308,3.6188,3.6187,3.6187,0,0,3.6332,3.6325,3.635,3.6344,3.6334,3.6317,3.6323,3.6306,3.6297,3.6318,3.6283,3.6292,3.6305,3.6299,3.6298,3.6368,3.634,3.637,3.6415,3.6433,3.6441,3.6448,3.6471,3.648,3.6375,3.6375,3.6375,0,3.6378,3.6396,3.6366,3.6383,3.6384,3.6342,3.6367,3.6363,3.6356,3.6356,3.6335,3.6349,3.634,3.6368,3.6385,3.6386,3.6391,3.6371,3.6442,3.6449,3.6456,3.6477,3.6486,3.6379,3.6378,3.6378,3.6378,0,3.6452,3.6465,3.6487,3.648,3.6483,3.6504,3.6477,3.6483,3.6462,3.6447,3.6468,3.6456,3.6456,3.6462,3.6442,3.6486,3.6474,3.6449,3.641,3.647,3.6489,3.6497,3.6384,3.6383,3.6382,3.6381,0,0,3.6563,3.6539,3.6547,3.6542,3.6528,3.6537,3.6556,3.6556,3.6561,3.6558,3.6571,3.6583,3.6558,3.6557,3.6536,3.6551,3.6604,3.6523,3.6522,3.6536,3.6649,3.6667,3.6677,3.6586,3.6588,3.6589,3.6649,0,3.663,3.666,3.6633,3.6668,3.6678,3.6639,3.6655,3.6647,3.6633,3.6639,3.6623,3.6631,3.6599,3.6597,3.6611,3.6595,3.6626,3.659,3.6597,3.6597,3.6598,3.6687,3.6707,3.6764,3.6657,3.6658,3.6659,0,3.6712,3.6711,3.6746,3.6728,3.6731,3.6746,3.6743,3.675,3.674,3.6729,3.6727,3.6701,3.6717,3.6681,3.6701,3.6678,3.6679,3.6671,3.6673,3.667,3.663,3.6685,3.6783,3.679,3.6671,3.667,3.6669,0,3.6785,3.6793,3.6815,3.6813,3.6793,3.6804,3.6796,3.6784,3.6786,3.6783,3.6783,3.6784,3.6783,3.6783,3.6758,3.6734,3.678,3.6743,3.677,3.677,3.6779,3.6779,3.6876,3.6784,3.6784,3.6784,3.6784,0,3.6861,3.6884,3.6847,3.6861,3.6884,3.6854,3.6878,3.6866,3.6856,3.6865,3.6832,3.6842,3.6808,3.6814,3.6794,3.6813,3.6813,3.6803,3.6797,3.6805,3.6806,3.6804,3.6798,3.6786,3.6786,3.6785,3.6785,0,3.6947,3.6924,3.6944,3.6924,3.6919,3.6937,3.6919,3.6929,3.6913,3.6925,3.6926,3.69,3.6905,3.688,3.6881,3.6867,3.6894,3.6883,3.6897,3.6893,3.692,3.6917,3.7017,3.7028,3.6932,3.6933,3.6934,0,3.6996,3.7013,3.6993,3.6997,3.699,3.6997,3.6998,3.6969,3.6971,3.696,3.6972,3.6974,3.6974,3.6983,3.6964,3.6963,3.695,3.6985,3.695,3.6956,3.6948,3.6946,3.6946,3.6992,3.6993,3.6994,3.6995,0,3.7085,3.7072,3.7075,3.7073,3.7075,3.7072,3.7067,3.7072,3.704,3.7044,3.7048,3.7048,3.7048,3.705,3.7045,3.7036,3.701,3.7007,3.7012,3.7019,3.7026,3.702,3.6915,3.7004,3.7003,3.7002,3.7002,3.7002,3.7152,3.7164,3.7151,3.7155,3.7148,3.7144,3.7152,3.7136,3.7139,3.7136,3.7119,3.7126,3.7114,3.7106,3.7099,3.7104,3.7087,3.7096,3.7098,3.71,3.7103,3.7027,3.7103,3.7103,3.7103,3.7102,3.7102,0,3.7236,3.7226,3.723,3.7223,3.7226,3.7201,3.7194,3.7198,3.7204,3.7196,3.7196,3.72,3.7201,3.7182,3.718,3.7187,3.7175,3.7188,3.7186,3.7183,3.712,3.7114,3.7197,3.7197,3.7197,3.7197,3.7197,3.7197,3.728,3.7298,3.7284,3.7298,3.7287,3.7294,3.7291,3.7287,3.728,3.7285,3.7286,3.7274,3.726,3.7257,3.7257,3.7251,3.7251,3.7267,3.7257,3.7198,3.7188,3.7179,3.7173,3.7268,3.7268,3.732,3.732,3.7321]}]]